IGO581 EDDF-EDDS

Flight info

Callsign IGO581
Flight time 0h 26m
Altitude 17000
Route ANEKI2L/18 ANEKI Y163 NEKLO Y171 INKAM N850 KRH T128 BADSO BADSO2A
Aircraft A320/M-SDE3FGHIRWY/LB1

Departure

Time 2026-05-06 20:22
Airport Frankfurt Main Airport (EDDF)

Arrival

Time 2026-05-06 20:48
Airport Stuttgart Airport (EDDS)
Time Latitude Longitude Altitude Speed Heading
2026-05-06 20:05 50.04600 8.56791 378 ft 0 kts 294°
2026-05-06 20:09 50.04598 8.56798 378 ft 2 kts 293°
2026-05-06 20:10 50.04591 8.56827 378 ft 3 kts 285°
2026-05-06 20:10 50.04587 8.56857 378 ft 3 kts 270°
2026-05-06 20:10 50.04589 8.56885 378 ft 3 kts 233°
2026-05-06 20:10 50.04598 8.56898 378 ft 1 kts 205°
2026-05-06 20:11 50.04601 8.56900 378 ft 0 kts 205°
2026-05-06 20:14 50.04586 8.56889 378 ft 4 kts 204°
2026-05-06 20:14 50.04547 8.56863 378 ft 8 kts 194°
2026-05-06 20:14 50.04506 8.56854 378 ft 9 kts 184°
2026-05-06 20:14 50.04447 8.56812 378 ft 9 kts 244°
2026-05-06 20:15 50.04420 8.56703 378 ft 13 kts 249°
2026-05-06 20:15 50.04384 8.56552 378 ft 17 kts 249°
2026-05-06 20:15 50.04354 8.56428 378 ft 20 kts 249°
2026-05-06 20:15 50.04303 8.56211 378 ft 20 kts 250°
2026-05-06 20:16 50.04260 8.56034 378 ft 16 kts 249°
2026-05-06 20:16 50.04231 8.55913 378 ft 19 kts 249°
2026-05-06 20:16 50.04162 8.55624 378 ft 24 kts 250°
2026-05-06 20:16 50.04077 8.55269 378 ft 26 kts 250°
2026-05-06 20:17 50.04014 8.55005 378 ft 24 kts 249°
2026-05-06 20:17 50.03982 8.54874 378 ft 18 kts 249°
2026-05-06 20:17 50.03920 8.54611 378 ft 21 kts 250°
2026-05-06 20:17 50.03887 8.54474 378 ft 16 kts 250°
2026-05-06 20:18 50.03845 8.54341 378 ft 13 kts 234°
2026-05-06 20:18 50.03784 8.54163 378 ft 16 kts 249°
2026-05-06 20:18 50.03741 8.53982 378 ft 20 kts 249°
2026-05-06 20:18 50.03706 8.53839 378 ft 23 kts 249°
2026-05-06 20:19 50.03627 8.53519 378 ft 24 kts 250°
2026-05-06 20:19 50.03566 8.53259 378 ft 27 kts 249°
2026-05-06 20:19 50.03497 8.52975 378 ft 24 kts 249°
2026-05-06 20:19 50.03456 8.52824 378 ft 11 kts 246°
2026-05-06 20:20 50.03436 8.52747 378 ft 3 kts 249°
2026-05-06 20:20 50.03435 8.52743 378 ft 0 kts 249°
2026-05-06 20:20 50.03435 8.52741 378 ft 1 kts 249°
2026-05-06 20:20 50.03421 8.52684 378 ft 7 kts 249°
2026-05-06 20:21 50.03363 8.52601 378 ft 9 kts 191°
2026-05-06 20:21 50.03281 8.52598 378 ft 16 kts 180°
2026-05-06 20:21 50.02983 8.52601 379 ft 79 kts 179°
2026-05-06 20:21 50.02193 8.52608 379 ft 145 kts 179°
2026-05-06 20:22 50.01452 8.52616 450 ft 169 kts 179°
2026-05-06 20:22 49.99931 8.52578 1272 ft 168 kts 180°
2026-05-06 20:22 49.98712 8.52616 1704 ft 182 kts 177°
2026-05-06 20:22 49.97401 8.52731 2149 ft 196 kts 176°
2026-05-06 20:23 49.96460 8.52814 2459 ft 205 kts 177°
2026-05-06 20:23 49.94460 8.52960 3125 ft 226 kts 177°
2026-05-06 20:23 49.93389 8.53041 3623 ft 230 kts 175°
2026-05-06 20:23 49.91290 8.54065 4428 ft 247 kts 152°
2026-05-06 20:24 49.89786 8.55443 5031 ft 261 kts 149°
2026-05-06 20:24 49.88715 8.56434 5450 ft 270 kts 151°
2026-05-06 20:24 49.87030 8.57838 6122 ft 280 kts 155°
2026-05-06 20:24 49.85285 8.59200 6967 ft 282 kts 157°
2026-05-06 20:25 49.82930 8.61064 7908 ft 294 kts 156°
2026-05-06 20:25 49.81062 8.62585 8305 ft 314 kts 155°
2026-05-06 20:25 49.79074 8.64214 8691 ft 331 kts 155°
2026-05-06 20:25 49.76998 8.65908 9115 ft 345 kts 155°
2026-05-06 20:26 49.74824 8.67666 9481 ft 360 kts 155°
2026-05-06 20:26 49.72570 8.69477 9738 ft 369 kts 155°
2026-05-06 20:26 49.70269 8.71331 9991 ft 377 kts 155°
2026-05-06 20:26 49.67938 8.73218 10242 ft 379 kts 155°
2026-05-06 20:27 49.65600 8.75112 10494 ft 380 kts 155°
2026-05-06 20:27 49.63250 8.77012 10746 ft 382 kts 155°
2026-05-06 20:27 49.60888 8.78912 10977 ft 383 kts 155°
2026-05-06 20:27 49.58564 8.80779 11000 ft 370 kts 155°
2026-05-06 20:28 49.56308 8.82594 10998 ft 361 kts 155°
2026-05-06 20:28 49.54082 8.84382 11001 ft 361 kts 155°
2026-05-06 20:28 49.51859 8.86166 11000 ft 361 kts 155°
2026-05-06 20:28 49.49626 8.87950 11000 ft 361 kts 155°
2026-05-06 20:29 49.47404 8.89722 11000 ft 361 kts 155°
2026-05-06 20:29 49.45169 8.91509 11000 ft 361 kts 155°
2026-05-06 20:29 49.42943 8.93290 11000 ft 361 kts 155°
2026-05-06 20:29 49.40717 8.95067 11000 ft 361 kts 155°
2026-05-06 20:30 49.38516 8.96820 10992 ft 347 kts 155°
2026-05-06 20:30 49.34436 9.00081 10993 ft 318 kts 156°
2026-05-06 20:30 49.32491 9.01625 10996 ft 313 kts 156°
2026-05-06 20:31 49.30555 9.03158 10998 ft 314 kts 156°
2026-05-06 20:31 49.28615 9.04692 10999 ft 314 kts 156°
2026-05-06 20:31 49.26673 9.06230 10999 ft 314 kts 156°
2026-05-06 20:31 49.24734 9.07762 10999 ft 312 kts 156°
2026-05-06 20:32 49.22837 9.09265 10994 ft 303 kts 156°
2026-05-06 20:32 49.20972 9.10739 10998 ft 302 kts 156°
2026-05-06 20:32 49.19105 9.12209 10998 ft 302 kts 156°
2026-05-06 20:32 49.17260 9.13665 10999 ft 302 kts 156°
2026-05-06 20:33 49.15368 9.15159 10999 ft 302 kts 156°
2026-05-06 20:33 49.13499 9.16631 10846 ft 301 kts 156°
2026-05-06 20:33 49.11639 9.18092 10598 ft 300 kts 156°
2026-05-06 20:33 49.09812 9.19527 10352 ft 299 kts 156°
2026-05-06 20:34 49.07967 9.20980 10102 ft 298 kts 156°
2026-05-06 20:34 49.06128 9.22422 9994 ft 297 kts 156°
2026-05-06 20:34 49.04281 9.23865 9996 ft 298 kts 156°
2026-05-06 20:34 49.02444 9.25306 9997 ft 298 kts 156°
2026-05-06 20:35 49.00600 9.26755 9998 ft 298 kts 156°
2026-05-06 20:35 48.98770 9.28209 9998 ft 299 kts 153°
2026-05-06 20:35 48.97170 9.30261 9987 ft 305 kts 131°
2026-05-06 20:35 48.96100 9.33053 10003 ft 308 kts 116°
2026-05-06 20:36 48.95249 9.36044 9998 ft 307 kts 114°
2026-05-06 20:36 48.94452 9.39044 9771 ft 306 kts 113°
2026-05-06 20:36 48.93668 9.42048 9391 ft 305 kts 113°
2026-05-06 20:36 48.92888 9.45048 9035 ft 304 kts 113°
2026-05-06 20:37 48.92112 9.48034 8689 ft 303 kts 113°
2026-05-06 20:37 48.91341 9.50993 8414 ft 299 kts 113°
2026-05-06 20:37 48.90589 9.53885 8295 ft 289 kts 113°
2026-05-06 20:37 48.89866 9.56672 8193 ft 279 kts 113°
2026-05-06 20:38 48.89169 9.59360 8097 ft 269 kts 113°
2026-05-06 20:38 48.88504 9.61937 8003 ft 259 kts 113°
2026-05-06 20:38 48.87857 9.64448 7925 ft 248 kts 113°
2026-05-06 20:38 48.87447 9.66045 7873 ft 242 kts 113°
2026-05-06 20:39 48.86653 9.69142 7757 ft 228 kts 113°
2026-05-06 20:39 48.86044 9.71317 7607 ft 220 kts 125°
2026-05-06 20:39 48.85008 9.72924 7349 ft 210 kts 152°
2026-05-06 20:39 48.83749 9.74019 7090 ft 208 kts 157°
2026-05-06 20:40 48.82448 9.74928 6816 ft 203 kts 172°
2026-05-06 20:40 48.81097 9.74917 6532 ft 190 kts 204°
2026-05-06 20:40 48.79968 9.73963 6235 ft 185 kts 220°
2026-05-06 20:40 48.79284 9.73186 6027 ft 186 kts 223°
2026-05-06 20:41 48.78283 9.71131 5623 ft 183 kts 251°
2026-05-06 20:41 48.77864 9.69295 5470 ft 185 kts 255°
2026-05-06 20:41 48.77495 9.67418 5333 ft 186 kts 257°
2026-05-06 20:41 48.77153 9.65530 5208 ft 186 kts 257°
2026-05-06 20:42 48.76807 9.63631 5083 ft 187 kts 257°
2026-05-06 20:42 48.76448 9.61733 4959 ft 188 kts 256°
2026-05-06 20:42 48.76087 9.59845 4864 ft 182 kts 256°
2026-05-06 20:42 48.75750 9.58066 4771 ft 171 kts 257°
2026-05-06 20:43 48.75431 9.56359 4570 ft 167 kts 257°
2026-05-06 20:43 48.75119 9.54692 4380 ft 168 kts 256°
2026-05-06 20:43 48.74793 9.52963 4245 ft 168 kts 256°
2026-05-06 20:43 48.74470 9.51254 4120 ft 169 kts 256°
2026-05-06 20:44 48.74148 9.49549 4006 ft 168 kts 255°
2026-05-06 20:44 48.73934 9.48415 4003 ft 169 kts 255°
2026-05-06 20:44 48.73612 9.46708 4002 ft 169 kts 255°
2026-05-06 20:44 48.73184 9.44438 3910 ft 169 kts 255°
2026-05-06 20:45 48.72858 9.42708 3720 ft 168 kts 255°
2026-05-06 20:45 48.72537 9.41005 3506 ft 168 kts 255°
2026-05-06 20:45 48.72324 9.39879 3360 ft 167 kts 254°
2026-05-06 20:45 48.72113 9.38760 3214 ft 167 kts 254°
2026-05-06 20:46 48.71699 9.36564 2929 ft 157 kts 254°
2026-05-06 20:46 48.71409 9.35031 2741 ft 145 kts 254°
2026-05-06 20:46 48.71138 9.33597 2546 ft 141 kts 254°
2026-05-06 20:46 48.70782 9.31710 2294 ft 140 kts 254°
2026-05-06 20:47 48.70511 9.30274 2103 ft 140 kts 254°
2026-05-06 20:47 48.70245 9.28865 1917 ft 139 kts 254°
2026-05-06 20:47 48.69982 9.27473 1734 ft 139 kts 254°
2026-05-06 20:47 48.69713 9.26050 1545 ft 139 kts 254°
2026-05-06 20:48 48.69454 9.24667 1363 ft 138 kts 253°
2026-05-06 20:48 48.69198 9.23316 1290 ft 115 kts 255°
2026-05-06 20:48 48.69029 9.22417 1290 ft 64 kts 254°
2026-05-06 20:48 48.68936 9.21895 1290 ft 45 kts 271°
2026-05-06 20:49 48.68973 9.21553 1290 ft 15 kts 284°
2026-05-06 20:49 48.68991 9.21443 1290 ft 9 kts 284°
2026-05-06 20:49 48.69002 9.21334 1290 ft 11 kts 250°
2026-05-06 20:49 48.68980 9.21238 1290 ft 11 kts 252°
2026-05-06 20:50 48.68957 9.21110 1290 ft 14 kts 256°
2026-05-06 20:50 48.68928 9.20954 1290 ft 18 kts 252°
2026-05-06 20:50 48.68898 9.20805 1290 ft 4 kts 256°
2026-05-06 20:50 48.68899 9.20741 1290 ft 8 kts 295°
2026-05-06 20:51 48.68940 9.20666 1290 ft 10 kts 313°
2026-05-06 20:51 48.68997 9.20575 1290 ft 14 kts 313°
2026-05-06 20:51 48.69049 9.20494 1290 ft 7 kts 313°
2026-05-06 20:51 48.69059 9.20425 1290 ft 2 kts 259°
2026-05-06 20:52 48.69048 9.20409 1290 ft 4 kts 204°
2026-05-06 20:52 48.69017 9.20407 1290 ft 6 kts 164°
2026-05-06 20:52 48.69000 9.20414 1290 ft 2 kts 164°
2026-05-06 20:52 48.68993 9.20417 1290 ft 0 kts 164°